Aérodrome :
LOGIN :

S'inscrire | Disclaimer

   EN    FR    IT 

 










Légende :    VFR   VFR Marginal   IFR   IFR Intensif   IFR Très Intensif
Visi : 
Plafond : 
>= 8 km
>= 3000ft
5 à 8 km
1000 à 3000 ft
1500m à 5 km
500 à 1000 ft
800 à 1500m
200 à 500 ft
< 800m
< 200 ft
Symboles :   Orages  Brouillard  Fortes neiges  Fortes précipitations  Vent > 20 kt
SIGMETs :   Divers  Orages  Givrage  Turbulence  Onde Orograph.  Cendres Volcan.






- Altitude de l'aérodrome : 628 ft
- Code IATA : CMR


LFGA - Colmar-Houssen

METARs EXPIRÉS :
  • 212200Z AUTO 36010KT 9999 -RA OVC008 01/01 Q1022
  • 212130Z AUTO 02008KT 9999 RA SCT007 BKN012 BKN019 02/01 Q1021
  • 212100Z AUTO 01012KT 9999 -RA FEW008/// OVC014/// ///TCU 02/01 Q1021
  • 212030Z AUTO 01010KT 9999 -RA BKN011/// OVC019/// ///TCU 03/02 Q1021
  • 212000Z AUTO 36008KT 9999 -RA BKN011/// OVC016/// ///TCU 03/02 Q1021
  • 211930Z AUTO 01010KT 9999 -RA FEW010/// BKN016/// BKN022/// ///TCU 03/02 Q1021

TAF N/A



MET'MAP, la Météo Aéronautique d'un coup d'oeil ! - Copyright ORBIFLY Décembre 2007 - Disclaimer

ORBIFLY MET'MAP TEAM :

Programmation & Développement : Alexandra Zaïnal
Sur une idée originale de : Baudouin d'Aumeries
Soutien technique & logistique : Manuel Goepfert
Assistance : Marc-Olivier Méhu




SOURCES & CREDITS :

   NOAA